| time (UTC) | temp F | wind direction | speed MPH | gust MPH | rain 1hr in | rain 24hr in | rain mn in | humidity % | barometer mb |
| 20260508210030 | 51 | 11 | 3.0 | 11.0 | 0.01 | 0.02 | 0.02 | 78 | 1010.7 |
| 20260508204529 | 53 | 53 | 8.0 | 24.0 | 0.01 | 0.02 | 0.02 | 72 | 1011.0 |
| 20260508203027 | 56 | 75 | 7.0 | 14.0 | 0.00 | 0.01 | 0.01 | 60 | 1010.4 |
| 20260508201528 | 56 | 30 | 1.0 | 4.0 | 0.00 | 0.01 | 0.01 | 62 | 1009.9 |
| 20260508200031 | 57 | 28 | 2.0 | 5.0 | 0.00 | 0.01 | 0.01 | 63 | 1010.3 |
| 20260508194529 | 56 | 355 | 2.0 | 4.0 | 0.00 | 0.01 | 0.01 | 61 | 1010.3 |
| 20260508193028 | 56 | 19 | 4.0 | 7.0 | 0.00 | 0.01 | 0.01 | 61 | 1010.5 |
| 20260508191530 | 56 | 45 | 2.0 | 5.0 | 0.00 | 0.01 | 0.01 | 57 | 1010.3 |
| 20260508190031 | 57 | 167 | 1.0 | 5.0 | 0.00 | 0.01 | 0.01 | 65 | 1010.4 |
| 20260508184534 | 55 | 136 | 5.0 | 15.0 | 0.00 | 0.01 | 0.01 | 64 | 1010.7 |
| 20260508183029 | 57 | 101 | 3.0 | 14.0 | 0.00 | 0.01 | 0.01 | 57 | 1010.7 |
| 20260508181528 | 57 | 33 | 5.0 | 12.0 | 0.01 | 0.01 | 0.01 | 56 | 1010.6 |
| 20260508180030 | 57 | 62 | 8.0 | 13.0 | 0.01 | 0.01 | 0.01 | 58 | 1010.9 |
| 20260508174536 | 56 | 166 | 6.0 | 11.0 | 0.01 | 0.01 | 0.01 | 63 | 1011.1 |
| 20260508173029 | 53 | 81 | 6.0 | 18.0 | 0.01 | 0.01 | 0.01 | 66 | 1011.1 |
| 20260508171531 | 56 | 55 | 9.0 | 16.0 | 0.00 | 0.00 | 0.00 | 51 | 1011.3 |
| 20260508170028 | 57 | 65 | 5.0 | 14.0 | 0.00 | 0.00 | 0.00 | 51 | 1011.0 |
| 20260508164534 | 56 | 54 | 6.0 | 19.0 | 0.00 | 0.00 | 0.00 | 52 | 1011.2 |
| 20260508163027 | 56 | 76 | 9.0 | 18.0 | 0.00 | 0.00 | 0.00 | 50 | 1011.2 |
| 20260508161526 | 56 | 53 | 9.0 | 23.0 | 0.00 | 0.00 | 0.00 | 51 | 1011.2 |
| 20260508160033 | 57 | 54 | 9.0 | 16.0 | 0.00 | 0.00 | 0.00 | 51 | 1011.3 |
| 20260508154531 | 58 | 59 | 10.0 | 24.0 | 0.00 | 0.00 | 0.00 | 55 | 1011.3 |
| 20260508153028 | 57 | 20 | 12.0 | 23.0 | 0.00 | 0.00 | 0.00 | 51 | 1011.3 |
| 20260508151531 | 57 | 51 | 13.0 | 31.0 | 0.00 | 0.00 | 0.00 | 51 | 1011.1 |
| 20260508150034 | 56 | 13 | 14.0 | 21.0 | 0.00 | 0.00 | 0.00 | 51 | 1010.9 |
| 20260508144529 | 55 | 12 | 11.0 | 22.0 | 0.00 | 0.00 | 0.00 | 53 | 1011.2 |
| 20260508143028 | 53 | 59 | 9.0 | 19.0 | 0.00 | 0.00 | 0.00 | 55 | 1011.3 |
| 20260508141528 | 52 | 32 | 8.0 | 15.0 | 0.00 | 0.00 | 0.00 | 56 | 1011.5 |
| 20260508140029 | 52 | 11 | 8.0 | 16.0 | 0.00 | 0.00 | 0.00 | 56 | 1011.8 |
| 20260508134528 | 51 | 352 | 11.0 | 17.0 | 0.00 | 0.00 | 0.00 | 56 | 1011.7 |
| 20260508133029 | 50 | 22 | 8.0 | 14.0 | 0.00 | 0.00 | 0.00 | 58 | 1011.8 |
| 20260508131529 | 49 | 5 | 7.0 | 15.0 | 0.00 | 0.00 | 0.00 | 58 | 1012.1 |
| 20260508130027 | 48 | 335 | 5.0 | 13.0 | 0.00 | 0.00 | 0.00 | 60 | 1012.1 |
| 20260508124530 | 46 | 40 | 2.0 | 5.0 | 0.00 | 0.00 | 0.00 | 69 | 1012.2 |
| 20260508123030 | 42 | 0 | 0.0 | 0.0 | 0.00 | 0.00 | 0.00 | 77 | 1012.2 |
| 20260508121530 | 41 | 0 | 0.0 | 0.0 | 0.00 | 0.00 | 0.00 | 79 | 1012.2 |
| 20260508120028 | 41 | 0 | 0.0 | 1.0 | 0.00 | 0.00 | 0.00 | 78 | 1012.3 |
| 20260508114530 | 40 | 0 | 0.0 | 0.0 | 0.00 | 0.00 | 0.00 | 83 | 1012.4 |
| 20260508113028 | 38 | 0 | 0.0 | 1.0 | 0.00 | 0.00 | 0.00 | 83 | 1012.4 |
| 20260508111529 | 36 | 0 | 0.0 | 0.0 | 0.00 | 0.00 | 0.00 | 86 | 1012.3 |
| 20260508110027 | 34 | 0 | 0.0 | 2.0 | 0.00 | 0.00 | 0.00 | 89 | 1012.2 |
| 20260508104541 | 34 | 107 | 0.0 | 2.0 | 0.00 | 0.00 | 0.00 | 88 | 1012.0 |
| 20260508103035 | 34 | 0 | 0.0 | 2.0 | 0.00 | 0.00 | 0.00 | 87 | 1011.9 |
| 20260508101528 | 34 | 0 | 0.0 | 2.0 | 0.00 | 0.00 | 0.00 | 86 | 1011.8 |
| 20260508100027 | 34 | 0 | 0.0 | 1.0 | 0.00 | 0.00 | 0.00 | 86 | 1011.7 |
| 20260508094527 | 35 | 0 | 0.0 | 2.0 | 0.00 | 0.00 | 0.00 | 85 | 1011.6 |
| 20260508093029 | 35 | 0 | 0.0 | 0.0 | 0.00 | 0.00 | 0.00 | 85 | 1011.5 |
| 20260508091528 | 35 | 0 | 0.0 | 0.0 | 0.00 | 0.00 | 0.00 | 85 | 1011.5 |
| 20260508090030 | 36 | 0 | 0.0 | 0.0 | 0.00 | 0.00 | 0.00 | 85 | 1011.5 |
| 20260508084530 | 36 | 0 | 0.0 | 0.0 | 0.00 | 0.00 | 0.00 | 84 | 1011.6 |
| 20260508083031 | 36 | 0 | 0.0 | 1.0 | 0.00 | 0.00 | 0.00 | 84 | 1011.5 |
| 20260508081530 | 37 | 0 | 0.0 | 1.0 | 0.00 | 0.00 | 0.00 | 85 | 1011.5 |
| 20260508080027 | 37 | 0 | 0.0 | 0.0 | 0.00 | 0.00 | 0.00 | 86 | 1011.6 |
| 20260508074526 | 37 | 0 | 0.0 | 0.0 | 0.00 | 0.00 | 0.00 | 86 | 1011.4 |
| 20260508073028 | 37 | 0 | 0.0 | 0.0 | 0.00 | 0.00 | 0.00 | 87 | 1011.4 |
| 20260508071528 | 37 | 0 | 0.0 | 1.0 | 0.00 | 0.00 | 0.00 | 87 | 1011.6 |
| 20260508070041 | 37 | 107 | 0.0 | 2.0 | 0.00 | 0.00 | 0.00 | 87 | 1011.7 |
| 20260508064533 | 38 | 0 | 0.0 | 0.0 | 0.00 | 0.00 | 0.00 | 88 | 1011.7 |
| 20260508063030 | 38 | 0 | 0.0 | 0.0 | 0.00 | 0.00 | 0.00 | 88 | 1011.7 |
| 20260508061528 | 38 | 0 | 0.0 | 0.0 | 0.00 | 0.00 | 0.00 | 88 | 1011.7 |
| 20260508060027 | 38 | 0 | 0.0 | 0.0 | 0.00 | 0.00 | 0.00 | 86 | 1011.8 |
| 20260508054528 | 39 | 0 | 0.0 | 0.0 | 0.00 | 0.00 | 0.00 | 85 | 1011.8 |
| 20260508053030 | 39 | 0 | 0.0 | 0.0 | 0.00 | 0.00 | 0.00 | 86 | 1011.9 |
| 20260508051527 | 40 | 0 | 0.0 | 0.0 | 0.00 | 0.00 | 0.00 | 86 | 1012.0 |
| 20260508050027 | 40 | 0 | 0.0 | 0.0 | 0.00 | 0.00 | 0.00 | 84 | 1012.0 |
| 20260508044528 | 41 | 0 | 0.0 | 0.0 | 0.00 | 0.00 | 0.00 | 82 | 1011.9 |
| 20260508043048 | 42 | 0 | 0.0 | 0.0 | 0.00 | 0.00 | 0.00 | 80 | 1011.9 |
| 20260508041530 | 42 | 0 | 0.0 | 0.0 | 0.00 | 0.00 | 0.00 | 80 | 1011.7 |
| 20260508040031 | 43 | 0 | 0.0 | 0.0 | 0.00 | 0.00 | 0.00 | 80 | 1011.5 |
| 20260508034528 | 44 | 0 | 0.0 | 0.0 | 0.00 | 0.00 | 0.00 | 77 | 1011.5 |
| 20260508033032 | 45 | 0 | 0.0 | 1.0 | 0.00 | 0.00 | 0.00 | 75 | 1011.4 |
| 20260508031528 | 45 | 0 | 0.0 | 2.0 | 0.00 | 0.00 | 0.00 | 74 | 1011.4 |
| 20260508030042 | 46 | 0 | 0.0 | 4.0 | 0.00 | 0.00 | 0.00 | 73 | 1011.3 |
| 20260508024533 | 46 | 0 | 2.0 | 10.0 | 0.00 | 0.00 | 0.00 | 71 | 1011.1 |
| 20260508023030 | 47 | 134 | 3.0 | 24.0 | 0.00 | 0.00 | 0.00 | 71 | 1010.7 |
| 20260508021533 | 51 | 85 | 19.0 | 31.0 | 0.00 | 0.00 | 0.00 | 57 | 1011.4 |
| 20260508020029 | 52 | 0 | 0.0 | 2.0 | 0.00 | 0.00 | 0.00 | 52 | 1009.7 |
| 20260508014529 | 52 | 0 | 0.0 | 2.0 | 0.00 | 0.00 | 0.00 | 50 | 1009.6 |
| 20260508013028 | 53 | 55 | 1.0 | 4.0 | 0.00 | 0.00 | 0.00 | 49 | 1009.4 |
| 20260508011530 | 53 | 65 | 2.0 | 6.0 | 0.00 | 0.00 | 0.00 | 49 | 1009.1 |
| 20260508010028 | 54 | 57 | 2.0 | 5.0 | 0.00 | 0.00 | 0.00 | 50 | 1008.9 |
| 20260508004528 | 54 | 95 | 2.0 | 4.0 | 0.00 | 0.00 | 0.00 | 50 | 1008.7 |
| 20260508003030 | 54 | 0 | 1.0 | 3.0 | 0.00 | 0.00 | 0.00 | 49 | 1008.5 |
| 20260508001529 | 55 | 39 | 1.0 | 4.0 | 0.00 | 0.00 | 0.00 | 47 | 1008.4 |
| 20260508000027 | 56 | 35 | 1.0 | 8.0 | 0.00 | 0.00 | 0.00 | 45 | 1008.2 |
| 20260507234535 | 56 | 44 | 4.0 | 9.0 | 0.00 | 0.00 | 0.00 | 43 | 1008.1 |
| 20260507233029 | 56 | 95 | 5.0 | 14.0 | 0.00 | 0.00 | 0.00 | 42 | 1008.0 |
| 20260507231530 | 56 | 70 | 4.0 | 9.0 | 0.00 | 0.00 | 0.00 | 42 | 1007.7 |
| 20260507230029 | 57 | 101 | 6.0 | 16.0 | 0.00 | 0.00 | 0.00 | 41 | 1007.7 |
| 20260507224530 | 57 | 81 | 8.0 | 15.0 | 0.00 | 0.00 | 0.00 | 41 | 1007.6 |
| 20260507223029 | 57 | 54 | 7.0 | 13.0 | 0.00 | 0.00 | 0.00 | 42 | 1007.5 |
| 20260507221533 | 57 | 96 | 5.0 | 12.0 | 0.00 | 0.00 | 0.00 | 41 | 1007.6 |
| 20260507220029 | 57 | 69 | 6.0 | 12.0 | 0.00 | 0.00 | 0.00 | 41 | 1007.6 |
| 20260507214530 | 57 | 63 | 6.0 | 14.0 | 0.00 | 0.00 | 0.00 | 42 | 1007.6 |
| 20260507213030 | 58 | 51 | 5.0 | 11.0 | 0.00 | 0.00 | 0.00 | 41 | 1007.6 |
| 20260507211528 | 57 | 70 | 6.0 | 14.0 | 0.00 | 0.00 | 0.00 | 41 | 1007.6 |